www.pogodaiklimat.ru

Погода и климат >> Архив погоды >> Пакистан >> Бахавалпур аэропорт


ПОГОДА а Бахавалпур аэропорту

  • Прогноз погоды а Бахавалпур аэропорту
  • Монитор погоды а Бахавалпур аэропорту

АРХИВ ПОГОДЫ а Бахавалпур аэропорту

Время (UTC), дата Ветер
(напр.,м/с)
 
Видим.   Явления Облачность Т
(С)
Тd
(С)
f
(%)
Тe
(С)
Тes
(С)
Комфортность P
(гПа)
Po
(гПа)
Тmin
(С)
Tmax
(С)
R
(мм)
R24
(мм)
S
(см)
15 9.07 штиль 0 2000 м мгла ясно +39.0 +25.2 46 +52 +52 опасность
перегрева
990.7 978.1
18 9.07 штиль 0 2000 м дым ясно +36.0 +25.6 55 +51 +51 опасность
перегрева
992.1 979.4
21 9.07 ЮЗ 3 2000 м дым ясно +34.0 +25.7 62 +49 +49 опасность
перегрева
992.1 979.3
00 10.07 ЮЗ 5 2000 м дым ясно +33.0 +26.1 67 +49 +49 опасность
перегрева
992.1 978.4
03 10.07 ЮЗ 7 2000 м дым ясно +32.0 +23.4 60 +43 +45 опасность
перегрева
994.3 980.6 +31.5
06 10.07 ЮЗ 7 2000 м дым ясно +35.0 +23.7 52 +46 +52 опасность
перегрева
995.5 981.8
09 10.07 ЮЗ 5 4000 м мгла ясно +39.0 +21.8 37 +46 +57 опасность
перегрева
992.9 980.3
12 10.07 штиль 0 4000 м мгла ясно +40.0 +23.1 38 +49 +55 опасность
перегрева
991.4 978.0 +41.0
15 10.07 штиль 0 4000 м мгла ясно +37.0 +24.4 49 +49 +49 опасность
перегрева
991.4 978.7
18 10.07 штиль 0 4000 м дым ясно +35.0 +25.3 57 +49 +49 опасность
перегрева
992.5 979.7
21 10.07 штиль 0 4000 м дым ясно +34.0 +25.7 62 +49 +49 опасность
перегрева
992.2 979.4
00 11.07 ЮЗ 5 2000 м дым ясно +33.0 +26.1 67 +49 +49 опасность
перегрева
992.2 978.5
06 11.07 ЮЗ 10 2000 м пыльный позёмок ясно +35.0 +23.7 52 +46 +47 опасность
перегрева
994.2 980.5
09 11.07 ЮЗ 7 4000 м мгла ясно +40.0 +23.1 38 +49 +55 опасность
перегрева
992.7 980.1
12 11.07 ЮЗ 3 4000 м мгла ясно +41.0 +22.6 35 +49 +53 опасность
перегрева
991.3 977.9 +42.0
15 11.07 штиль 0 2000 м мгла ясно +38.0 +24.0 45 +49 +49 опасность
перегрева
991.6 978.9
18 11.07 СЗ 3 2000 м дым 3/0
[]
+35.0 +25.3 57 +49 +49 опасность
перегрева
993.7 980.9
00 12.07 ЮЗ 5 2000 м дым ясно +31.0 +23.9 66 +43 +43 опасность
перегрева
995.0 981.3
06 12.07 ЮЗ 10 2000 м пыльный позёмок ясно +36.0 +23.2 48 +46 +47 опасность
перегрева
996.7 983.2
09 12.07 ЮЗ 5 2000 м мгла ясно +39.0 +21.8 37 +46 +57 опасность
перегрева
996.0 983.3
12 12.07 ЮЗ 3 4000 м мгла ясно +40.0 +22.2 36 +48 +52 опасность
перегрева
994.7 981.3 +41.0
15 12.07 штиль 0 4000 м мгла ясно +37.0 +24.4 49 +49 +49 опасность
перегрева
994.7 982.0
18 12.07 штиль 0 4000 м дым ясно +35.0 +25.3 57 +49 +49 опасность
перегрева
996.6 983.8
21 12.07 штиль 0 4000 м дым ясно +34.0 +24.9 59 +47 +47 опасность
перегрева
995.9 983.0
00 13.07 ЮЗ 5 2000 м дым ясно +32.0 +23.4 60 +43 +43 опасность
перегрева
996.1 982.4
03 13.07 ЮЗ 5 2000 м дым 5/0
[Ac trans]
+32.0 +23.4 60 +43 +46 опасность
перегрева
997.8 984.0
06 13.07 Ю 10 2000 м пыльный позёмок ясно +35.0 +23.7 52 +46 +47 опасность
перегрева
998.0 984.5
21 13.07 ЮЗ 7 2000 м дым 8/3 1200 м
[Sc Ac trans]
+34.0 +23.3 54 +45 +45 опасность
перегрева
995.2 982.3
00 14.07 ЮЗ 7 2000 м дым 8/3 1200 м
[Sc Ac trans]
+31.5 +22.0 57 +40 +40 очень
душно
994.9 981.3
03 14.07 ЮЗ 7 2000 м дым ясно +31.0 +23.1 63 +41 +43 опасность
перегрева
996.4 982.8 +29.5
06 14.07 ЮЗ 10 2000 м пыльный позёмок ясно +35.0 +22.0 47 +44 +45 опасность
перегрева
997.0 983.4
09 14.07 ЮЗ 7 2000 м мгла ясно +40.0 +23.1 38 +49 +55 опасность
перегрева
994.3 981.7
12 14.07 З 3 2000 м мгла ясно +40.0 +23.1 38 +49 +53 опасность
перегрева
991.7 978.3 +41.5
18 14.07 штиль 0 2000 м дым 6/3 1050 м
[Sc Ac trans]
+35.0 +23.7 52 +46 +46 опасность
перегрева
993.8 980.2
21 14.07 Ю 5 2000 м дым 6/3 1050 м
[Sc Ac trans]
+33.5 +24.4 59 +46 +46 опасность
перегрева
993.0 980.1
00 15.07 ЮЗ 5 2000 м дым 6/3 1050 м
[Sc Ac trans]
+32.0 +24.2 63 +44 +44 опасность
перегрева
992.5 978.8
03 15.07 ЮЗ 7 2000 м дым 6/3 1050 м
[Sc Ac trans]
+31.5 +22.9 60 +41 +42 опасность
перегрева
994.9 981.2 +30.0
06 15.07 Ю 5 2000 м мгла ясно +34.5 +21.4 47 +42 +54 опасность
перегрева
995.4 981.8
09 15.07 ЮЗ 3 2000 м мгла ясно +38.0 +20.4 36 +44 +60 опасность
перегрева
980.5 968.0
12 15.07 Ю 3 2000 м мгла ясно +39.0 +20.9 35 +45 +49 опасность
перегрева
991.5 978.1 +39.5
15 15.07 СВ 10 2000 м мгла 9/4 1050 м
[Sc Ac trans]
+36.0 +23.2 48 +46 +46 опасность
перегрева
993.9 981.1
18 15.07 штиль 0 2000 м дым 9/4 1050 м
[Sc Ac trans]
+33.5 +22.7 53 +43 +43 опасность
перегрева
994.5 980.8
21 15.07 СВ 5 2000 м дым 9/4 1050 м
[Sc Ac trans]
+32.0 +23.4 60 +43 +43 опасность
перегрева
993.7 980.8
00 16.07 ЮЗ 5 2000 м дым 9/4 1050 м
[Sc Ac trans]
+31.0 +23.9 66 +43 +43 опасность
перегрева
993.7 980.0
03 16.07 ЮЗ 7 2000 м дым 3/0
[Ac trans]
+32.0 +23.4 60 +43 +44 опасность
перегрева
996.5 982.8 +30.5
06 16.07 ЮЗ 7 2000 м мгла ясно +34.0 +22.5 51 +43 +50 опасность
перегрева
998.5 985.0

 

Местоположение метеостанции Бахавалпур аэропорт (Пакистан): широта 29.40 долгота 71.78 высота над уровнем моря 117 м.

В архиве по умолчанию представлена погода а Бахавалпур аэропорту за последнюю неделю. Архивные данные за месяц целиком и за предыдущие месяцы, начиная с января 2011 года, Вы можете получить, выбрав интересующий диапазон дат из раскрывающегося списка и нажав кнопку "Ввод!".


*Определитесь, кто Вы:
робот инопланетянин человек

Внимание! Время в таблицах - всемирное. Для получения местного времени необходимо прибавить поправку, которая равна 5 ч.

Смотрите также архив погоды в соседних городах и на ближайших метеорологических станциях:

Погода в Мултане (Пакистан) (95 км)
Погода в Ханевале (Пакистан) (101 км)
Погода в Дера Гази Хан (Пакистан) (133 км)
Погода в Ханпуре (Пакистан) (136 км)
Погода в Кот Адду (Пакистан) (142 км)
Погода в Бахавалнагаре (Пакистан) (155 км)
Погода на Авиабазе Raifiqui (Пакистан) (159 км)
Погода в Рахим Яр Хан (Пакистан) (178 км)
Погода в Сахивале (Пакистан) (184 км)
Погода в Тоба Тек Сингх (Пакистан) (188 км)

Пояснения к столбцам:

Ветер - указаны скорость ветра в м/с - средняя за 10 мин, порывы в срок и между сроками (в фигурных скобках) и направление, откуда дует ветер: С - северный, СВ - северо-восточный, В - восточный, ЮВ - юго-восточный, Ю - южный, ЮЗ - юго-западный, З - западный, СЗ - северо-западный.
Видимость - горизонтальная дальность видимости в метрах или километрах. При видимости от 1 до 10 км при отсутствии осадков обычно наблюдается дымка, при ухудшении видимости до 1 км и менее - туман. В сухую погоду видимость может ухудшаться дымом, пылью или мглою.
Явления - указаны атмосферные явления, наблюдавшиеся в срок или в последний час перед сроком; фигурными скобками обозначены явления, наблюдавшиеся между сроками (за 1-3 часа до срока); квадратными скобками обозначены град или гололедные отложения с указанием их диаметра в мм.
Облачность - указаны через наклонную черту общая и нижняя облачность в баллах и высота нижней границы облаков в метрах; квадратными скобками обозначены формы облаков: Ci - перистые, Cs - перисто-слоистые, Cc - перисто-кучевые, Ac - высококучевые, As - высокослоистые, Sc - слоисто-кучевые, Ns - слоисто-дождевые, Cu - кучевые, Cb - кучево-дождевые. Подробнее классификацию облаков см. в Атласе облаков (PDF).
T - Температура воздуха - температура, измеренная на высоте 2 м над землей.
Td - Температура точки росы - температура, при понижении до которой содержащийся в воздухе водяной пар достигнет насыщения.
f - Относительная влажность воздуха - влажноcть воздуха, измеренная на высоте 2 м над землей.
Te - Эффективная температура - температура, которую ощущает одетый по сезону человек в тени. Характеристика душности погоды. При расчете учитывается влияние влажности воздуха и скорости ветра на теплоощущения человека.
Tes - Эффективная температура на солнце - температура, которую ощущает человек, с поправкой на солнечный нагрев. Характеристика знойности погоды. Зависит от высоты солнца над горизонтом, облачности и скорости ветра. Ночью, в пасмурную погоду, а также при ветре 12 м/с и более поправка равна нулю.
P - Атмосферное давление - приведенное к уровню моря атмосферное давление.
Po - Атмосферное давление - измеренное на уровне метеостанции атмосферное давление.
Tmin - Минимальная температура - минимум температуры воздуха на высоте 2 м над землей.
Tmax - Максимальная температура - максимум температуры воздуха на высоте 2 м над землей.
R - Количество осадков - Количество выпавших осадков за период времени, мм. При наведении курсора мыши на число - период времени, за который выпало указанное количество осадков.
R24 - Количество осадков - Количество выпавших осадков за 24 часа, мм.
S - Снежный покров - Высота снежного покрова, см. При наведении курсора мыши на число - состояние снежного покрова и степень покрытия местности в баллах.